Showing default

INTELSAT 35E, 42818

Orbit data source: Space-Track

INTELSAT 35E, 42818 is a payload satellite owned by Intelsat SA (US) (US) in GEO that was launched on Wed, 05 Jul 2017 UTC via an FALCON 9 launch vehicle from the Air Force Eastern Test Range (AFETR). Payload-class satellites include a variety of spacecraft equipped with specific instruments for various scientific and technological missions. These include communications satellites like Starlink; space stations such as the ISS; scientific satellites like the Hubble; Earth observation satellites from companies like Planet Labs, Umbra, and HawkEye 360; GPS; miniature CubeSats for education and research; and military/defense satellites.

Not visible in the next 10 days
Identifier
42818, 2017-041A
Orbit
GEO
Country
Flag of USUS / ITSO
Related business
Manufacturer
Boeing/ES
Mission
Operational Commercial Communications
Bus & Motor
BSS-702MP, IHI BT-4
Mass
6,761 kg wet, ~3,500 kg dry
Launch date (UTC)
2017-07-05 (9 years ago)
Launch vehicle
FALCON 9
Launch site
Air Force Eastern Test Range (AFETR)
Object type
Payload
Rocket body
Debris
Shape & HBR
Box + 2 Pan, 22.0 m
Radar Cross Section
59.953 m², Large (>1 m²)

Expand to show TLE details & history
Last TLE update: 2 days ago

TLE from 2 days ago
0 INTELSAT 35E
1 42818U 17041A   26171.38513712 -.00000242  00000-0  00000+0 0  9991
2 42818   0.0180  23.6269 0002053  67.1464 281.9730  1.00272940 32842
Epoch: 2026-06-20T09:14Z
TLE epoch observation values (Epoch: 2026-06-20T09:14:35.847Z)
Latitude
-0.00175°
Longitude
-34.5144°
Altitude
35,783.956 km
Speed
3.075 km/s
True Right ascension
00h 50m 56s
True Declination
0° 00' 06"
Sunlit
Object was in daylight at epoch
Visualization orbit readout
Latitude
Unknown
Longitude
Unknown
Altitude
Unknown
Speed
Unknown
Apparent Right ascension
Unknown
Apparent Declination
Unknown
Sunlit
N/A
Visualization observer readout
Local Sidereal Time
21:39:01
Azimuth
Unknown
Elevation
Unknown
Doppler factor
Unknown
Orbital elements
Apogee altitude
35,795.998 km
Perigee altitude
35,778.685 km
Semi-major axis
42,165.479 km
Eccentricity
0.00021
Inclination
0.018°
RAAN
23.6269°
Arg. of periapsis
67.1464°
True anomaly
281.94998°
Mean anomaly
281.973°
Eccentric anomaly
281.96149°
Mean motion
0.25067 °/min
Orbital period
1,436.13 mins
BSTAR
0
Loading maneuver chart data...
Computing Atmospheric mass density...
Loading historical data...
Loading historical data...
Loading historical data...
Loading historical data...
Loading historical data...
Loading historical data...
Loading historical data...
Other satellites on launch #41 in the year 2017 (2017-07-05 UTC)

Documentation

Showing up to 5 results
|